Regional Weather Roundup
Issued by NWS Midland/Odessa, TX

Skip options and go directly to product.
Home | Oldest Version | Previous Version | Current Version | All | Text Only | Save Text | Print | Product List | Glossary Off

Skip product version selection by date and time.   

666
ASUS44 KMAF 281810
RWRMAF
MIDLAND AREA WEATHER ROUNDUP
NATIONAL WEATHER SERVICE MIDLAND TX
100 PM CDT THU MAY 28 2015

...IN SOUTHWEST TEXAS AND SOUTHEAST NEW MEXICO...

CITY           SKY/WX    TMP DP  RH WIND       PRES   REMARKS
ALPINE         MOSUNNY   82  54  37 S18G28    30.15S
ANDREWS        FAIR      79  66  63 S13G20    30.03F
ARTESIA        MOSUNNY   81  63  54 CALM      30.02F
BIG SPRING     PTSUNNY   82  64  54 SE24G33   30.02F
CARLSBAD       PTSUNNY   80  64  58 SE12      29.99F
DRYDEN           N/A     90  52  27 W6G17     29.94F
FORT STOCKTON  MOSUNNY   83  67  58 E10       30.00F
GUAD PASS      SUNNY     81  56  42 SW10G20   30.14S
HOBBS          PTSUNNY   73  66  78 SE14      30.05F
MARFA          MOSUNNY   81  57  44 S17G24    30.13F
MIDLAND AIRPK  MOSUNNY   83  64  52 S18       30.01F
MIDLAND INTL   MOSUNNY   81  66  60 S22       30.01F
ODESSA         MOSUNNY   80  65  59 S18       30.02F
PECOS          PTSUNNY   83  64  51 CALM      29.97F
PRESIDIO       FAIR      90  55  30 MISG      29.98F
SEMINOLE       PTSUNNY   79  64  59 S14G20    30.04F
SNYDER         PTSUNNY   78  67  68 SE20      30.02F
WINK           PTSUNNY   85  64  49 S16G22    29.98F
$$
...OTHER STATIONS IN TEXAS...

CITY           SKY/WX    TMP DP  RH WIND       PRES   REMARKS
ABILENE        CLOUDY    81  67  62 S15       30.05F
AMARILLO       CLOUDY    69  59  70 E10       30.06F
AUSTIN         TSTM      81  76  84 SE8       30.04F
BROWNSVILLE    MOSUNNY   88  75  65 SE21      30.02F
CORPUS CHRISTI PTSUNNY   87  74  64 SE18G25   30.02F
DALLAS FTW     PTSUNNY   84  69  60 S14       30.06F
DEL RIO        PTSUNNY   83  73  72 SE22G28   29.93F
EL PASO        MOSUNNY   89  14   6 W16G23    30.02F
HOUSTON INT    MOSUNNY   88  73  61 SE6       30.07F
LUBBOCK        TSTM      69  66  90 NE17      30.02F
SAN ANGELO     CLOUDY    81  67  62 SE10      30.02F
SAN ANTONIO    PTSUNNY   85  74  69 SE18      30.04F
WACO           LGT RAIN  82  75  79 VRB5      30.07F
WICHITA FALLS  NOT AVBL
$$
...OTHER LOCATIONS IN NEW MEXICO...

CITY           SKY/WX    TMP DP  RH WIND       PRES   REMARKS
ALAMAGORDO     SUNNY     84  39  20 SW6       30.05F
ALBUQUERQUE    MOSUNNY   75  29  18 CALM      30.13F
CANNON AFB     MOSUNNY   75  63  64 S16       30.05F
CLOVIS         PTSUNNY   73  61  64 S18         N/A
HOLLOMAN AFB   SUNNY     85  41  21 NW6       30.03F
ROSWELL        MOSUNNY   81  61  50 SE7G20    30.01F
RUIDOSO        MOSUNNY   75  27  16 MISG      30.20F
SANTA FE       SUNNY     74  28  18 SW16      30.16F
TRUTH OR CONSE SUNNY     83  23  11 E7        30.08F
TUCUMCARI      PTSUNNY   78  57  48 S17G25    30.02F
$$

USA.gov is the U.S. government's official web portal to all federal, state and local government web resources and services.